Torna al catalogo

STARLINK-38137

AttivoComunicazioniSSO
NORAD 100198·PAYLOAD·🇺🇸 United States

Lanciato Aug 1, 2026 da Vandenberg Space Force Base

Loading…

Prossimi Passaggi (prossime 24 ore)

TLE

AggiornatoSource: Space-Track

Epoca: Sep 14, 2026, 13:08 UTC

1 A0198U 26175V   26257.54749458  .00222706  00000-0  14506-2 0  9994
2 A0198  97.2833  99.7582 0001508 111.9244 248.2181 15.75265776  8249

Traccia STARLINK-38137 in tempo reale con AllMySat

Download on the App Store